Погода Нижний Новгород

Погода Нижний Новгород : погода сейчас, прогноз погоды и архив. Всё, что Вы хотите узнать о погоде Нижний Новгород!

Хотите узнать прогноз погоды в Нижнем Новгороде? Тогда Вам сюда: Погода в Нижнем Новгороде

Поиск расширенной информации на нашем сайте:

Другие новости

Новости СМИ2

Главная страница сайта

Новости сайта

03.07.2017

Напоминаем, что на нашем специализированном сайте Метеоцентр.Азия вы можете получить высокодетализированные автоматические прогнозы погоды по пунктам России, СНГ и мира в авиационном формате (включающие направление и скорость ветра, видимость, явления погоды, количество и форму облачности, нижнюю и верхнюю границу облачности).

Рекомендуем: Пуллер макси для собак: puller maxi игрушка для собак пуллер макси.

Погода Нижний Новгород - сегодня

Время (UTC), дата Ветер
(°,м/с) 
Видим.   Явления Облачность Т
(°С)
Тd
(°С)
f(%) Тe
(°С)
Pmin
(гПа)
dP
(гПа)
Po
(мм)
O2
(г/м3)
Тmin Tmax R s Состояние
почвы
03 16.02.18 130 (ЮВ) 1-2{03}  10 км    10/6 1000 м средняя 
[Sc|Ac As]
-12 -14 85 -12  1039  -0.5  763  323  -14.6      41  равномерный
сухой снег
100% 
15 16.02.18 140 (ЮВ) 2-4{05}  10 км  слаб. снег  10/6 300 м средняя 
[Sc|As op]
-5.2 -8.9 75 -7  1036.4  -0.5  762  314    -5  0.2     
03 17.02.18 140 (ЮВ) 1-3{04}  10 км    10/10 300 м 
[Sc]
-6.8 -10.6 74 -6  1034.1  -1  760  315  -6.8    0.0  41  равномерный
сухой снег
100% 
15 17.02.18 140 (ЮВ) 3-6{09}  10 км  слаб. снег  10/8 300 м средняя 
[Sc|Ac As]
-6 -8.7 81 -9  1030.5  -0.8  758  313    -4.6  0.0     
03 18.02.18 130 (ЮВ) 2-6{07}  10 км    9/9 600 м 
[Sc]
-6.8 -12 66 -8  1026.6  -1.1  755  313  -6.8    0.0  41  равномерный
сухой снег
100% 
15 18.02.18 130 (ЮВ) 3-6{09}  10 км  слаб. снег  10/10 300 м 
[Frnb]
-5.7 -7.5 87 -8  1022.5  -1.2  752  310    -4.6     
03 19.02.18 170 (Ю) 1-2{03}  4000 м  слаб. снег  10/10 300 м 
[Frnb]
-8.4 -9.4 92 -8  1018.4  -1  748  312  -8.4    43  равномерный
сухой снег
100% 
15 19.02.18 130 (ЮВ) 2-3{04}  4000 м  слаб. снег  10/8 300 м средняя 
[Frnb|Ac As]
-5.8 -8.8 79 -7  1017.5  -0.2  748  309    -4  0.3     
03 20.02.18 280 (З) 1-0{02}  4000 м  слаб. снег  10/10 300 м 
[Frnb]
-5.4 -6.4 93 -5  1014.6  -0.8  746  307  -6.1    0.5  45  равномерный
сухой снег
100% 
15 20.02.18 290 (З) 1-3{06}  10 км  {снег}  8/3 300 м средняя, верхняя 
[Sc|Ac trans|Ci fib]
-7.4 -10.8 77 -7  1015  0.5  746  310    -4.4  0.4     
03 21.02.18 280 (З) 2-5{05}  4000 м  слаб. снег  10/10 300 м 
[Frnb]
-12 -13.3 90 -14  1016.5  0.2  747  316  -12    0.8  46  равномерный
сухой снег
100% 
15 21.02.18 270 (З) 2-4{06}  10 км  {снег}  8/0 верхняя 
[Cs]
-11.7 -15.2 75 -14  1019.9  1.2  749  317    -10  0.8     
03 22.02.18 280 (З) 1-3{04}  10 км    4/4 300 м 
[St]
-16.8 -18.7 85 -17  1022.9  0.2  751  324  -16.8      47  равномерный
сухой снег
100% 
09 22.02.18 290 (З) 1-4{04}  10 км  {снег}  6/1 300 м средняя, верхняя 
[Sc diur, vesp|Ac trans|Ci fib]
-14.1 -16.1 85 -14  1023.9  0.4  752  321           
18 22.02.18 тихо () -2{05}  10 км    ясно 
-15.2 -17.2 85 -15  1025.7  0.8  753  323           
21 22.02.18 тихо () -2{02}  10 км    ясно 
-16.1 -18 85 -16  1026.5  0.7  754  324           
00 23.02.18 300 (СЗ) 1-2{02}  10 км    ясно 
-17.4 -19.3 85 -18  1026.9  0.2  754  326           
03 23.02.18 280 (З) 1-1{02}  10 км    ясно 
-19.4 -22 80 -20  1026.7  -0.3  754  329  -19.4      47  равномерный
сухой снег
100% 
09 23.02.18 270 (З) 2-4{05}  10 км    ясно 
-11.9 -16.3 70 -14  1026.1  -0.1  754  319           
15 23.02.18 270 (З) 1-3{05}  10 км    8/8 600 м 
[Sc]
-9.7 -14.9 66 -10  1024.8  -0.4  753  316    -7.8       
03 24.02.18 270 (З) 1-2{04}  10 км    8/0 средняя, верхняя 
[Ac lent|Cs]
-16.7 -18.6 85 -17  1025.9  0.2  753  325  -16.7      47  равномерный
сухой снег
100% 
18 24.02.18 030 (СВ) 1-2{03}  10 км    ясно 
-14 -16.7 80 -14  1026.7  0.2  754  322           
21 24.02.18 020 (С) 1-2{02}  10 км    ясно 
-15.6 -17.5 85 -16  1026.4  -0.4  754  324           
03 25.02.18 тихо () -0{03}  4000 м  слаб. снег  10/5 300 м средняя 
[Sc|Ac As]
-15.6 -17.5 85 -16  1025.9  -0.5  754  324  -16    0.2  47  равномерный
сухой снег
100% 
15 25.02.18 тихо () -0{03}  10 км    8/3 600 м средняя, верхняя 
[Sc|Ac trans|Ci fib]
-14.6 -19.7 65 -15  1025.3  753  322    -12.4  0.2     
Время (UTC), дата Ветер
(°,м/с) 
Видим.   Явления Облачность Т
(°С)
Тd
(°С)
f(%) Тe
(°С)
Pmin
(гПа)
dP
(гПа)
Po
(мм)
O2
(г/м3)
Тmin Tmax R s Состояние
почвы

Для получения пояснительной информации подведите курсор к названию столбца.

ПОГОДА Нижний Новгород - архив

Всё, что Вы хотите узнать о погоде Нижний Новгород - удобно и подробно!

Выберите нужную дату (начиная с 1 января 2015* года) и нажмите кнопку "Найти".
Будут отображены архивные сводки погоды по пункту Нижний Новгород, начиная с указанной даты.


Отображать данные в формате CSV (для использования в таблицах Excel)


Внимание! Наш архив погоды предназначен исключительно для личного некоммерческого использования в познавательных целях. Если Вам необходимы официальные справки о состоянии погоды (для производственных, юридических, коммерческих и т.п. целей), обращайтесь в органы Росгидромета.

*Примечание: данная дата относится к архиву по метеостанциям СССР (Россия, СНГ, Балтия).
Архив по метеостанциям Зарубежной Европы и Азии (кроме Китая) хранится 10 дней, по другим регионам земного шара (Китай, Африка, Америка, Австралия, Океания) - 1 день.

Нижний Новгород - район местоположения метеостанции


Название, широта, долгота, высота метеостанции:
Нижний Новгород (Мыза) 56.3°ш. 44°д. 157 м над ур. моря [Российская Федерация]

Дополнительная информация

В oтличие oт бoльшинства пoгoдных сайтoв мы публикуем пoдрoбную метеoинфoрмацию в детальнoм прoфессиoнальнoм фoрмате.

Характеристики температуры и влажнoсти вoздуха измеряются на высoте 2 м в тени вдали oт зданий и деревьев.
Скoрoсть ветра измеряется на высoте 10 м (на урoвне рoста челoвека скoрoсть ветра ниже в 1.5-2 раза). Если метеoстанция нахoдится в гoрoде или в лесу, тo скoрoсть ветра занижена на 2-4 м/с пo сравнению с oткрытым местoм. Скoрoсть ветра над акватoриями крупных рек и oзёр, а также на вершинах хoлмoв на 2-5 м/с выше, чем в oбычных услoвиях.
Атмoсфернoе давление в разных тoчках местнoсти мoжет значительнo oтличаться oт давления на метеoстанции, в зависимoсти oт услoвий рельефа (при пoдъёме на 10 м давление пoнижается примернo на 1 мм рт.ст.).